• In Russia
  • List of Countries
  • For 7 days
  • Water Temperature
  • Satellite Maps
  • Weather Map
  • Weather Widgets
  • user-avatar
    Login

    Hourly Weather Granada

    Today, 20 January, Sunday

    Time Temperature Precipitation Wind Pressure Humidity
    00:00 +8°C° 0 mm 2 mps 697 mmHg 89%
    01:00 +8°C° 0.2 mm 2 mps 697 mmHg 88%
    02:00 +8°C° 0.2 mm 3 mps 697 mmHg 88%
    03:00 +8°C° 0.2 mm 3 mps 696 mmHg 88%
    04:00 +8°C° 0.5 mm 3 mps 696 mmHg 89%
    05:00 +8°C° 0.5 mm 3 mps 696 mmHg 90%
    06:00 +8°C° 0 mm 2 mps 695 mmHg 90%
    07:00 +8°C° 1.1 mm 2 mps 695 mmHg 91%
    08:00 +8°C° 1.1 mm 3 mps 695 mmHg 91%
    09:00 +8°C° 1.1 mm 3 mps 695 mmHg 91%
    10:00 +9°C° 0.4 mm 3 mps 696 mmHg 89%
    11:00 +9°C° 0.4 mm 3 mps 696 mmHg 86%
    12:00 +8°C° 0.4 mm 4 mps 697 mmHg 84%
    13:00 +8°C° 0.1 mm 4 mps 697 mmHg 82%
    14:00 +8°C° 0.1 mm 4 mps 697 mmHg 79%
    15:00 +8°C° 0.1 mm 4 mps 697 mmHg 77%
    16:00 +8°C° 0 mm 3 mps 697 mmHg 79%
    17:00 +7°C° 0 mm 2 mps 698 mmHg 80%
    18:00 +6°C° 0 mm 2 mps 698 mmHg 82%
    19:00 +6°C° 0 mm 2 mps 698 mmHg 81%
    20:00 +5°C° 0 mm 2 mps 699 mmHg 81%
    21:00 +5°C° 0 mm 2 mps 700 mmHg 80%
    22:00 +5°C° 0 mm 2 mps 700 mmHg 79%
    23:00 +4°C° 0 mm 2 mps 700 mmHg 78%

    Tomorrow, 21 January, Monday

    Time Temperature Precipitation Wind Pressure Humidity
    00:00 +4°C° 0 mm 2 mps 700 mmHg 77%
    01:00 +3°C° 0 mm 2 mps 700 mmHg 76%
    02:00 +3°C° 0 mm 2 mps 700 mmHg 75%
    03:00 +2°C° 0 mm 2 mps 700 mmHg 74%
    04:00 +2°C° 0 mm 2 mps 700 mmHg 74%
    05:00 +2°C° 0 mm 2 mps 700 mmHg 74%
    06:00 +2°C° 0 mm 2 mps 701 mmHg 73%
    07:00 +3°C° 0 mm 2 mps 701 mmHg 70%
    08:00 +4°C° 0 mm 2 mps 702 mmHg 66%
    09:00 +5°C° 0 mm 2 mps 702 mmHg 62%
    10:00 +6°C° 0 mm 2 mps 702 mmHg 58%
    11:00 +7°C° 0 mm 2 mps 703 mmHg 53%
    12:00 +8°C° 0 mm 2 mps 703 mmHg 49%
    13:00 +8°C° 0 mm 2 mps 703 mmHg 49%
    14:00 +8°C° 0 mm 3 mps 702 mmHg 49%
    15:00 +8°C° 0 mm 3 mps 702 mmHg 49%
    16:00 +7°C° 0 mm 2 mps 702 mmHg 55%
    17:00 +6°C° 0 mm 2 mps 702 mmHg 61%
    18:00 +4°C° 0 mm 2 mps 702 mmHg 67%
    19:00 +4°C° 0 mm 2 mps 703 mmHg 67%
    20:00 +3°C° 0 mm 2 mps 703 mmHg 68%
    21:00 +4°C° 0 mm 1 mps 703 mmHg 69%
    22:00 +3°C° 0 mm 1 mps 703 mmHg 68%
    23:00 +3°C° 0 mm 1 mps 703 mmHg 68%

    Day after tomorrow, 22 January, Tuesday

    Time Temperature Precipitation Wind Pressure Humidity
    00:00 +3°C° 0 mm 1 mps 703 mmHg 67%
    01:00 +3°C° 0 mm 1 mps 703 mmHg 65%
    02:00 +3°C° 0 mm 1 mps 703 mmHg 63%
    03:00 +3°C° 0 mm 1 mps 703 mmHg 62%
    04:00 +2°C° 0 mm 1 mps 702 mmHg 59%
    05:00 +2°C° 0 mm 1 mps 702 mmHg 57%
    06:00 +2°C° 0 mm 1 mps 702 mmHg 55%
    07:00 +4°C° 0 mm 1 mps 702 mmHg 52%
    08:00 +4°C° 0 mm 2 mps 703 mmHg 49%
    09:00 +5°C° 0 mm 2 mps 703 mmHg 46%
    10:00 +6°C° 0 mm 2 mps 703 mmHg 46%
    11:00 +7°C° 0 mm 3 mps 702 mmHg 46%
    12:00 +8°C° 0 mm 4 mps 702 mmHg 46%
    13:00 +8°C° 0 mm 4 mps 701 mmHg 49%
    14:00 +8°C° 0 mm 4 mps 700 mmHg 51%
    15:00 +8°C° 0 mm 4 mps 700 mmHg 53%
    16:00 +7°C° 0 mm 4 mps 699 mmHg 62%
    17:00 +5°C° 0 mm 4 mps 699 mmHg 71%
    18:00 +4°C° 0 mm 3 mps 699 mmHg 79%
    19:00 +5°C° 0.1 mm 3 mps 699 mmHg 82%
    20:00 +5°C° 0.1 mm 3 mps 700 mmHg 84%
    21:00 +5°C° 0.1 mm 3 mps 700 mmHg 87%
    22:00 +5°C° 0 mm 3 mps 700 mmHg 88%
    23:00 +4°C° 0 mm 3 mps 700 mmHg 88%

    23 January, Wednesday

    Time Temperature Precipitation Wind Pressure Humidity
    00:00 +4°C° 0 mm 3 mps 700 mmHg 89%
    01:00 +4°C° 0 mm 3 mps 700 mmHg 89%
    02:00 +4°C° 0 mm 2 mps 699 mmHg 88%
    03:00 +3°C° 0 mm 2 mps 699 mmHg 88%
    04:00 +3°C° 0 mm 2 mps 699 mmHg 86%
    05:00 +3°C° 0 mm 2 mps 699 mmHg 85%
    06:00 +3°C° 0 mm 2 mps 699 mmHg 84%
    07:00 +4°C° 0 mm 2 mps 700 mmHg 79%
    08:00 +3°C° 0 mm 3 mps 700 mmHg 74%
    09:00 +4°C° 0 mm 3 mps 700 mmHg 68%
    10:00 +5°C° 0 mm 4 mps 700 mmHg 66%
    11:00 +6°C° 0 mm 4 mps 700 mmHg 64%
    12:00 +7°C° 0 mm 4 mps 700 mmHg 62%
    13:00 +6°C° 0 mm 4 mps 699 mmHg 67%
    14:00 +6°C° 0 mm 4 mps 698 mmHg 71%
    15:00 +6°C° 0 mm 4 mps 698 mmHg 75%
    16:00 +5°C° 0 mm 4 mps 698 mmHg 78%
    17:00 +5°C° 0 mm 3 mps 698 mmHg 81%
    18:00 +5°C° 0 mm 3 mps 698 mmHg 85%
    19:00 +5°C° 0 mm 3 mps 698 mmHg 86%
    20:00 +5°C° 0 mm 3 mps 698 mmHg 88%
    21:00 +5°C° 0 mm 3 mps 698 mmHg 89%
    22:00 +5°C° 0 mm 3 mps 698 mmHg 90%
    23:00 +5°C° 0 mm 3 mps 698 mmHg 91%

    24 January, Thursday

    Time Temperature Precipitation Wind Pressure Humidity
    00:00 +5°C° 0 mm 3 mps 698 mmHg 92%
    01:00 +6°C° 0 mm 2 mps 698 mmHg 92%
    02:00 +6°C° 0 mm 2 mps 698 mmHg 92%
    03:00 +6°C° 0 mm 2 mps 698 mmHg 92%
    04:00 +6°C° 0 mm 2 mps 698 mmHg 91%
    05:00 +6°C° 0 mm 2 mps 698 mmHg 90%
    06:00 +6°C° 0 mm 2 mps 698 mmHg 90%
    07:00 +7°C° 0 mm 2 mps 699 mmHg 86%
    08:00 +7°C° 0 mm 2 mps 699 mmHg 82%
    09:00 +8°C° 0 mm 2 mps 700 mmHg 78%
    10:00 +10°C° 0 mm 2 mps 700 mmHg 70%
    11:00 +12°C° 0 mm 2 mps 700 mmHg 63%
    12:00 +12°C° 0 mm 3 mps 700 mmHg 55%
    13:00 +13°C° 0 mm 3 mps 700 mmHg 54%
    14:00 +13°C° 0 mm 3 mps 700 mmHg 52%
    15:00 +13°C° 0 mm 3 mps 699 mmHg 50%
    16:00 +13°C° 0 mm 2 mps 699 mmHg 58%
    17:00 +10°C° 0 mm 2 mps 699 mmHg 65%
    18:00 +9°C° 0 mm 2 mps 699 mmHg 73%
    19:00 +8°C° 0 mm 2 mps 699 mmHg 74%
    20:00 +8°C° 0 mm 2 mps 700 mmHg 76%
    21:00 +8°C° 0 mm 2 mps 700 mmHg 77%
    22:00 +8°C° 0 mm 2 mps 700 mmHg 78%
    23:00 +7°C° 0 mm 2 mps 700 mmHg 79%

    25 January, Friday

    Time Temperature Precipitation Wind Pressure Humidity
    00:00 +7°C° 0 mm 2 mps 700 mmHg 80%
    01:00 +7°C° 0 mm 2 mps 700 mmHg 81%
    02:00 +7°C° 0 mm 2 mps 700 mmHg 81%
    03:00 +7°C° 0 mm 2 mps 700 mmHg 82%
    04:00 +7°C° 0 mm 2 mps 700 mmHg 82%
    05:00 +7°C° 0 mm 2 mps 700 mmHg 81%
    06:00 +7°C° 0 mm 3 mps 700 mmHg 80%
    07:00 +8°C° 0 mm 3 mps 701 mmHg 76%
    08:00 +9°C° 0 mm 3 mps 701 mmHg 72%
    09:00 +10°C° 0 mm 3 mps 702 mmHg 68%
    10:00 +11°C° 0 mm 3 mps 702 mmHg 62%
    11:00 +12°C° 0 mm 3 mps 702 mmHg 56%
    12:00 +14°C° 0 mm 4 mps 702 mmHg 50%
    13:00 +14°C° 0 mm 4 mps 702 mmHg 49%
    14:00 +14°C° 0 mm 4 mps 702 mmHg 49%
    15:00 +14°C° 0 mm 4 mps 701 mmHg 49%
    16:00 +12°C° 0 mm 3 mps 701 mmHg 55%
    17:00 +11°C° 0 mm 3 mps 701 mmHg 60%
    18:00 +9°C° 0 mm 2 mps 701 mmHg 65%
    19:00 +9°C° 0 mm 2 mps 702 mmHg 66%
    20:00 +8°C° 0 mm 2 mps 702 mmHg 67%
    21:00 +8°C° 0 mm 2 mps 702 mmHg 68%
    22:00 +8°C° 0 mm 2 mps 703 mmHg 69%
    23:00 +7°C° 0 mm 2 mps 703 mmHg 70%
    Show more